Other Public Products
Issued by NWS Grand Forks, ND

Home | Current Version | Previous Version | Text Only | Print | Product List | Glossary On
Versions: 1 2 3 4 5 6 7 8 9 10 11 12 13 14 15 16 17 18 19 20 21 22 23 24 25 26 27 28 29 30 31 32 33 34 35 36 37 38 39 40 41 42 43 44 45 46 47 48 49 50
000
FPUS83 KFGF 250431
OPUFGF
PRAIRIE TO PINES WEATHER ROUNDUP
NATIONAL WEATHER SERVICE EASTERN NORTH DAKOTA/GRAND FORKS ND
1100 PM CDT FRI APR 24 2015

 **SATELLITE DATA USED TO AUGMENT SKY COVER AT AUTOMATED STATIONS**
 *****  WEATHER ACROSS EASTERN NORTH DAKOTA  *****

CITY           SKY/WX    TMP DP  RH WIND       PRES   REMARKS
GRAND FORKS    CLOUDY    48  36  61 E10       29.82R
GRAND FORKS AF CLOUDY    47  37  67 SE8       29.81R
GRAND CITY NWS   N/A     45 N/A N/A E3          N/A
BUXTON           N/A     46  39  77 CALM        N/A
DEVILS LAKE    CLOUDY    46  37  71 E13       29.78R
FARGO          CLOUDY    46  39  76 E12       29.78R
WAHPETON ARPT  CLOUDY    45  37  76 SE12G18   29.76S
$$

 *****  WEATHER ACROSS CENTRAL AND WESTERN NORTH DAKOTA  *****

CITY           SKY/WX    TMP DP  RH WIND       PRES   REMARKS
JAMESTOWN      CLOUDY    47  40  76 E13       29.74R
BISMARCK       CLEAR     50  42  74 E13       29.71R
MINOT          PTCLDY    48  37  65 E13       29.71R
MINOT AFB      PTCLDY    48  41  75 E17       29.70R
GARRISON         N/A     48  39  71 E10       29.69R
WILLISTON      CLOUDY    58  36  43 E8        29.65R
DICKINSON      PTCLDY    46  32  58 E8        29.64S
HETTINGER      PTCLDY    46  34  62 E10       29.67R
$$

 *****  OTHER OBSERVATIONS NORTHEAST NORTH DAKOTA  *****

CITY           SKY/WX    TMP DP  RH WIND       PRES   REMARKS
WALHALLA       CLOUDY    45  32  61 E7        29.84S
LANGDON        FAIR      39  32  75 E9        29.82R
CAVALIER       CLOUDY    45  32  61 E10       29.83S
GRAFTON        CLOUDY    45  36  70 E10       29.83S
CANDO          FAIR      41  34  75 E12       29.80R
FORT TOTTEN      N/A     45  39  78 E7        29.95
ROLLA          CLOUDY    39  34  81 E9        29.80S
RUGBY          NOT AVBL
 ***** THE ABOVE OBSERVATIONS ARE NON NWS ARE NOT QUALITY
        CONTROLLED AND MAY MIS-REPORT RAIN FOR SNOW...
$$

 *****  OTHER OBSERVATIONS SOUTHEAST NORTH DAKOTA *****

CITY           SKY/WX    TMP DP  RH WIND       PRES   REMARKS
COOPERSTOWN    NOT AVBL
VALLEY CITY    CLOUDY    45  45 100 E15       29.77R
OAKES            N/A     45  45 100 E21       29.73R
GWINNER        CLOUDY    46  45  93 E15       29.74R
SHEYENNE NWR     N/A     45  41  85 E12       29.95S
BUFFALO        NOT AVBL
WYNDMERE       NOT AVBL
 ***** THE ABOVE OBSERVATIONS ARE NON NWS ARE NOT QUALITY
       CONTROLLED AND MAY MIS-REPORT RAIN FOR SNOW...
$$

  *****  WEATHER ACROSS NORTHERN MINNESOTA  *****

CITY           SKY/WX    TMP DP  RH WIND       PRES   REMARKS
FLAG ISLAND    CLOUDY    41  25  52 E6        29.90F
WARROAD        CLOUDY    37  32  81 E8        29.89S
ROSEAU         CLOUDY    41  34  75 E10       29.87S
HALLOCK        CLOUDY    45  32  61 E10       29.84R
THF RVR FALLS  CLOUDY    43  32  65 E10       29.84S
HALSTAD          N/A     45  34  65 E8          N/A
FOSSTON        CLOUDY    41  30  65 E9        29.82S
BAUDETTE       CLOUDY    40  26  57 E10       29.89S
WASKISH        CLOUDY    41  30  65 CALM      29.87S
CROOKSTON      CLOUDY    45  34  65 E10       29.83R
$$
  *****  WEATHER ACROSS CENTRAL AND WEST MINNESOTA  *****

CITY           SKY/WX    TMP DP  RH WIND       PRES   REMARKS
BEMIDJI        CLOUDY    40  30  67 E12       29.85R
PARK RAPIDS    CLOUDY    42  30  62 E13       29.81R
WADENA         CLOUDY    41  32  70 E9        29.79R
DETROIT LAKES  CLOUDY    43  32  65 SE12G18   29.80R
MOORHEAD       CLOUDY    45  37  76 E7        29.80R
FERGUS FALLS   CLOUDY    45  37  76 E13G23    29.78S
ELBOW LAKE     CLOUDY    43  40  91 SE16G24   29.75F
MORRIS MN      CLOUDY    45  43  93 E14       29.74R FOG
STAPLES        CLOUDY    41  30  65 E7        29.80F
WHEATON        CLOUDY    41  39  93 E14       29.77R FOG
$$
  *****  WEATHER ELSEWHERE ACROSS MINNESOTA  *****

CITY           SKY/WX    TMP DP  RH WIND       PRES   REMARKS
DULUTH         CLOUDY    35  24  64 E14       29.91S
INTRNTL FALLS  CLOUDY    39  21  48 E7        29.92S
ELY            CLOUDY    36  16  44 E7        29.95S
CLOQUET        CLOUDY    34  27  75 E10G17    29.90S
BRAINERD       CLOUDY    40  32  73 E7        29.84S
HIBBING        CLOUDY    37  17  44 E8        29.91S
ALEXANDRIA     LGT RAIN  42  40  92 E13       29.78R FOG
SAINT CLOUD    CLOUDY    44  38  79 E9        29.81R
MINNEAPOLIS    CLOUDY    44  41  89 E14       29.83R
$$

  *****  WEATHER ACROSS SOUTH DAKOTA  *****

CITY           SKY/WX    TMP DP  RH WIND       PRES   REMARKS
SIOUX FALLS    CLOUDY    53  48  83 SE15G25   29.60S
BROOKINGS      CLOUDY    46  43  87 E15G22    29.67R
WATERTOWN      CLOUDY    46  43  89 E13       29.66S
HURON          CLOUDY    53  47  79 E18G28    29.55R
SISSETON         N/A     45  43  93 SE18      29.71R
ABERDEEN       CLOUDY    48  43  82 NE10      29.68R
MITCHELL       LGT RAIN  58  54  86 SE20      29.54F
PIERRE         PTCLDY    54  44  69 NE18      29.54R
MOBRIDGE       CLEAR     52  45  77 E22G30    29.61R
RAPID CITY     MOCLDY    46  42  86 NW9       29.62R
$$

  *****  SOME WEATHER IN NEARBY STATES *****

CITY           SKY/WX    TMP DP  RH WIND       PRES   REMARKS
GLASGOW MT     CLOUDY    56  34  43 N7        29.60S
GREAT FALLS MT LGT RAIN  42  38  85 N10       29.74R
CHEYENNE WY    CLOUDY    47  35  63 W17       29.71S
SCOTTSBLUFF NE CLOUDY    50  43  77 N7        29.61R
OMAHA NE       CLOUDY    58  53  84 E12       29.56S
DES MOINES IA  DRIZZLE   50  45  83 E14G21    29.65F
DAVENPORT IA   CLOUDY    47  41  80 E18       29.78F
CHICAGO IL     CLOUDY    41  35  79 E9        29.92R
EAU CLAIRE WI  CLOUDY    44  35  70 SE12      29.89S
LA CROSSE WI   LGT RAIN  44  39  82 VRB6      29.87F
$$

  *****  SOME NATIONAL WEATHER *****

CITY           SKY/WX    TMP DP  RH WIND       PRES   REMARKS
LA GUARDIA NY  CLEAR     40  22  48 NW16G23   29.93S
RALEIGH NC     MOCLDY    50  38  63 CALM      29.96F
ATLANTA GA     CLOUDY    67  50  54 S6        29.95F
NEW ORLEANS LA CLOUDY    73  69  87 SE15      29.81F
OKLAHOMA CITY  PTCLDY    62  59  90 S14       29.61R
ALBUQUERQUE NM PTCLDY    54  33  45 W7        29.95R
SALT LAKE CITY RAIN      49  46  90 NW9       29.78R
LOS ANGELES CA MOCLDY    59  53  80 W6        30.01R
BOISE ID       MOCLDY    51  31  46 NW3       29.74R
SEATTLE WA     CLOUDY    47  41  80 S9        29.86R
$$

*** WEATHER ACROSS MANITOBA...SASKATCHEWAN AND ONTARIO ***
                ***ONTARIO***

CITY           SKY/WX    TMP DP  RH WIND       PRES   REMARKS
GERALDTON      CLEAR     27  18  69 NE2       30.06R
THUNDER BAY    MOCLDY    34  27  75 E7        30.06S
SIOUX LOOKOUT  MOCLDY    37  16  41 E5        29.98R
TORONTO        CLEAR     32  21  64 W7        30.03R
BIG TROUT LK   CLEAR     23  12  63 E5        30.11R WCI  17
PICKLE LAKE    NOT AVBL
DRYDEN         CLOUDY    41  19  42 S6        29.97R
KENORA         CLOUDY    39  25  56 SE9       29.94S
$$
                *** MANITOBA***

CITY           SKY/WX    TMP DP  RH WIND       PRES   REMARKS
BRANDON        PTCLDY    39  32  75 E10       29.81R
DAUPHIN        CLOUDY    48  34  57 E12       29.82R
ISLAND LAKE    PTCLDY    30  16  55 E3        30.01S
PILOT MOUND      N/A     39  32  75 E9          N/A
THE PAS        LGT SNOW  27  25  93 N9        29.95R WCI  17
THOMPSON       LGT SNOW  25  23  93 NE10      30.03S WCI  15
WINNIPEG       PTCLDY    41  30  65 SE17G25   29.88S
LYNN LAKE      CLEAR     25  14  63 NE3       30.04R
CHURCHILL      CLEAR     14   9  79 S8        30.17R WCI   3
GILLAM         MOCLDY    23  10  58 E5        30.13R WCI  17
$$
                ***SASKATCHEWAN***

CITY           SKY/WX    TMP DP  RH WIND       PRES   REMARKS
ESTEVAN        CLOUDY    54  36  50 E13       29.68S
KINDERSLEY     CLOUDY    46  39  76 E15       29.70R
LLOYDMINSTER   CLOUDY    34  28  80 E20       29.82R WCI  22
PRINCE ALBERT  FLURRIES  30  25  80 NE15G23   29.91R WCI  19
REGINA         CLOUDY    52  32  46 E18       29.69R



USA.gov is the U.S. government's official web portal to all federal, state and local government web resources and services.